Regional Weather Roundup
Issued by NWS Boston, MA

Current Version | Previous Version | Text Only | Print | Product List | Glossary Off
Versions: 1 2 3 4 5 6 7 8 9 10 11 12 13 14 15 16 17 18 19 20 21 22 23 24 25 26 27 28 29
000 ASUS41 KBOX 261310 RWRBOX REGIONAL WEATHER ROUNDUP NATIONAL WEATHER SERVICE BOSTON/NORTON MA 900 AM EDT SAT MAY 26 2018 NOTE: "FAIR" INDICATES FEW OR NO CLOUDS BELOW 12,000 FEET WITH NO SIGNIFICANT WEATHER AND/OR OBSTRUCTIONS TO VISIBILITY. MAZALL-261400- EASTERN MASSACHUSETTS CITY SKY/WX TMP DP RH WIND PRES REMARKS BOSTON PTSUNNY 79 59 50 W15G24 29.75S BEVERLY FAIR 79 59 50 W10 29.74R LAWRENCE FAIR 80 58 46 SW10 29.76R BEDFORD FAIR 79 60 52 W8 29.75R BLUE HILL N/A 76 59 55 W9G22 29.78R NORWOOD FAIR 80 61 52 SW12 29.77R MARSHFIELD FAIR 79 61 53 W8G17 29.76R PLYMOUTH FAIR 78 63 59 SW10 29.78S TAUNTON FAIR 78 63 59 SW7 29.78R NEW BEDFORD FAIR 77 67 71 W13 29.79R $$ MAZALL-261400- CAPE COD AND THE ISLANDS CITY SKY/WX TMP DP RH WIND PRES REMARKS FALMOUTH FAIR 70 61 73 SW14 29.81S HYANNIS FAIR 71 62 73 SW7 29.78R CHATHAM FAIR 69 62 78 SW12G24 29.80R PROVINCETOWN FAIR 68 60 75 SW10 29.78R NANTUCKET FAIR 62 59 90 W18 29.82S MARTHAS VNYRD FAIR 71 63 75 SW14 29.81R $$ MAZALL-261400- CENTRAL AND WESTERN MASSACHUSETTS CITY SKY/WX TMP DP RH WIND PRES REMARKS WORCESTER FAIR 74 59 59 W15 29.80S FITCHBURG FAIR 79 57 46 W13 29.77R ORANGE FAIR 77 58 51 S6 29.80R SPRINGFIELD PTSUNNY 76 62 61 S3 29.78F WESTFIELD FAIR 77 63 61 S5 29.79S NORTH ADAMS FAIR 64 56 75 CALM 29.82S PITTSFIELD FAIR 75 57 53 SW8 29.82S $$ RIZALL-261400- RHODE ISLAND CITY SKY/WX TMP DP RH WIND PRES REMARKS PROVIDENCE FAIR 78 64 61 W9 29.80S NEWPORT FAIR 74 65 73 VRB5 29.79S BLOCK ISLAND FAIR 64 58 80 SW16 29.84R SMITHFIELD FAIR 77 63 61 MISG 29.81R WESTERLY FAIR 73 64 73 SW9 29.82S $$ CTZALL-261400- CONNECTICUT CITY SKY/WX TMP DP RH WIND PRES REMARKS BRADLEY INTL PTSUNNY 78 64 61 S7 29.80S HARTFORD FAIR 79 64 60 SW5 29.80R BRIDGEPORT FAIR 72 63 73 SW9 29.81F DANBURY FAIR 77 65 66 SW8 29.84S GROTON FAIR 69 64 84 SW8 29.81S NEW HAVEN FAIR 74 65 73 SW5 29.81S CHESTER FAIR 77 66 69 VRB3 29.82S MERIDEN FAIR 79 63 57 W3 29.81S WILLIMANTIC FAIR 79 65 62 W6 29.80F OXFORD FAIR 75 65 70 VRB3 29.85R $$ MEZ002-015-021-024-NHZ003-005-008-011-012-014-VTZ005-008-261400- NORTHERN NEW ENGLAND CITY SKY/WX TMP DP RH WIND PRES REMARKS PORTLAND ME LGT RAIN 69 59 70 CALM 29.70R BANGOR ME CLOUDY 69 62 78 NW5 29.68R CONCORD NH FAIR 76 55 48 VRB3 29.74S MANCHESTER NH PTSUNNY 81 56 42 SW6 29.73R NASHUA NH FAIR 79 58 48 CALM 29.76R PORTSMOUTH NH PTSUNNY 76 55 47 W7 29.71R JAFFREY NH FAIR 76 55 48 SW8 29.80R KEENE NH FAIR 77 59 53 CALM 29.78S BURLINGTON VT CLOUDY 69 60 73 S7 29.75R MT. WASHINGTON SHOWER 46 46 100 W48G58 N/A VSB 0 $$ NYZ052-076-261400- EASTERN NEW YORK CITY SKY/WX TMP DP RH WIND PRES REMARKS ALBANY PTSUNNY 74 59 59 S9 29.80R NEW YORK CITY FAIR 80 65 59 W5 29.82S $$ ANZALL-261400- MARINE OBSERVATIONS STATION/POSITION TIME TEMP WIND PRES VSBY WAVE AIR SEA DIR/SP/G HT/PER (UTC) (F) (DEG/KT/KT) (MB) (MI) (FT/S) BOSTON BUOY 1250 63 56 240/ 6/ 8 1007.3R 1/ 6 BUZZARDS BAY 1200 57 240/ 17/ 18 1009.9S NANTUCKET SOUND 1250 60 58 240/ 10/ 12 1009.1R 1/ 3 MASS BAY-STELLWA 1204 60 52 1005.2R 1/ 3 ISLE OF SHOALS 1300 72 250/ 13/ 13 1006.0R S OF BLOCK IS 1243 53 N/A 5/ 6 $$ ......................KEY......................... SKY/WX - SKY CONDITION/PRESENT WEATHER TMP - TEMPERATURE IN FAHRENHEIT DWPT - DEWPOINT IN FAHRENHEIT RH - RELATIVE HUMIDITY IN PERCENT WIND - DIRECTION AND SPEED IN MPH PRES - MEAN SEA LEVEL PRESSURE IN INCHES OF HG WCI - WIND CHILL INDEX VSB - VISIBILITY IN MILES HX - HEAT INDEX TC - TEMPERATURE IN CELSIUS VRB - VARIABLE WIND DIRECTION N/A - NOT AVAILABLE

USA.gov is the U.S. government's official web portal to all federal, state and local government web resources and services.